Weather History for KIML - March, 2013

Change the Weather History Date:

Thursday, March 7, 2013

  Actual Average Record
Temperature  
Mean Temperature 38 °F 37 °F  
Max Temperature 54 °F 51 °F 74 °F (1898)
Min Temperature 22 °F 23 °F -15 °F (1920)
Degree Days  
Heating Degree Days 27 28  
Month to date heating degree days 187 201  
Cooling Degree Days 0 0  
Month to date cooling degree days 0 0  
Year to date cooling degree days 0 0  
Moisture  
Dew Point 26 °F    
Average Humidity 64    
Maximum Humidity 92    
Minimum Humidity 35    
Precipitation  
Precipitation 0.00 in 0.03 in 0.93 in (1981)
Sea Level Pressure  
Sea Level Pressure 30.01 in    
Wind  
Wind Speed 5 mph (ESE)    
Max Wind Speed 12 mph    
Max Gust Speed 14 mph    
Visibility 9 miles    
Events      
T = Trace of Precipitation, MM = Missing Value Source: NWS Daily Summary

Daily Weather History Graph

Daily Weather History Graph

Search for Another Location

Airport or City:

Trip Planner

Search our weather history database for the weather conditions in past years. The results will help you decide how hot, cold, wet, or windy it might be!

Date:

Astronomy

Mar. 07, 2013 Rise Set
Actual Time 6:10 AM MST 5:44 PM MST
Civil Twilight 5:43 AM MST 6:12 PM MST
Nautical Twilight 5:11 AM MST 6:43 PM MST
Astronomical Twilight 4:39 AM MST 7:15 PM MST
Moon 3:12 AM MST (3/7) 1:34 PM MST (3/7)
Length of Visible Light 12h 28m
Length of Day
11h 34m
Waning Crescent, 19% of the Moon is Illuminated
Mar 7
Waning Crescent
Mar 11
New
Mar 19
First Quarter
Mar 27
Full
Apr 2
Last Quarter

Hourly Weather History & Observations

Time (MST) Temp. Windchill Dew Point Humidity Pressure Visibility Wind Dir Wind Speed Gust Speed Precip Events Conditions
12:53 AM 25.0 °F 16.3 °F 23.0 °F 92% 29.96 in 10.0 mi ESE 8.1 mph - N/A   Clear
1:53 AM 25.0 °F 15.5 °F 23.0 °F 92% 29.96 in 9.0 mi ESE 9.2 mph - N/A   Clear
2:53 AM 25.0 °F 18.1 °F 23.0 °F 92% 29.95 in 8.0 mi ESE 5.8 mph - N/A   Clear
3:53 AM 24.1 °F 15.2 °F 21.9 °F 91% 29.95 in 8.0 mi SE 8.1 mph - N/A   Clear
4:53 AM 24.1 °F 16.0 °F 21.9 °F 91% 29.97 in 6.0 mi SE 6.9 mph - N/A   Clear
5:53 AM 24.1 °F 18.2 °F 21.9 °F 91% 30.00 in 6.0 mi SE 4.6 mph - N/A   Clear
6:53 AM 24.1 °F 19.7 °F 21.9 °F 91% 30.03 in 5.0 mi ESE 3.5 mph - N/A   Clear
7:43 AM 26.6 °F 19.1 °F 24.8 °F 93% 29.96 in 6.0 mi ESE 6.9 mph - N/A   Partly Cloudy
7:53 AM 28.0 °F 22.8 °F 25.0 °F 88% 30.04 in 6.0 mi ESE 4.6 mph - N/A   Scattered Clouds
8:09 AM 28.4 °F 23.3 °F 26.6 °F 93% 29.97 in 7.0 mi SE 4.6 mph - N/A   Mostly Cloudy
8:44 AM 28.4 °F 24.6 °F 26.6 °F 93% 29.97 in 8.0 mi SSE 3.5 mph - N/A   Scattered Clouds
8:53 AM 28.9 °F - 27.0 °F 92% 30.06 in 8.0 mi Calm Calm - N/A   Mostly Cloudy
9:03 AM 30.2 °F 26.7 °F 26.6 °F 86% 29.97 in 9.0 mi SSE 3.5 mph - N/A   Scattered Clouds
9:53 AM 35.1 °F - 28.0 °F 76% 30.06 in 10.0 mi Calm Calm - N/A   Clear
10:53 AM 39.9 °F - 28.0 °F 63% 30.05 in 10.0 mi Calm Calm - N/A   Clear
11:53 AM 45.0 °F - 28.0 °F 52% 30.03 in 10.0 mi Calm Calm - N/A   Clear
12:53 PM 50.0 °F - 28.0 °F 43% 30.01 in 10.0 mi SE 4.6 mph - N/A   Clear
1:53 PM 53.1 °F - 28.0 °F 38% 29.98 in 10.0 mi SE 4.6 mph - N/A   Clear
2:53 PM 54.0 °F - 27.0 °F 35% 29.97 in 10.0 mi ESE 8.1 mph - N/A   Clear
3:53 PM 53.1 °F - 28.0 °F 38% 29.99 in 10.0 mi ESE 8.1 mph - N/A   Clear
4:53 PM 50.0 °F - 28.0 °F 43% 30.01 in 10.0 mi SE 10.4 mph - N/A   Clear
5:53 PM 41.0 °F 37.1 °F 28.0 °F 60% 30.05 in 10.0 mi ESE 5.8 mph - N/A   Clear
6:53 PM 35.1 °F 27.9 °F 27.0 °F 72% 30.08 in 10.0 mi East 9.2 mph - N/A   Clear
7:53 PM 36.0 °F 31.1 °F 28.0 °F 73% 30.07 in 10.0 mi East 5.8 mph - N/A   Clear
8:53 PM 30.9 °F 26.2 °F 26.1 °F 82% 30.09 in 10.0 mi SE 4.6 mph - N/A   Unknown
9:53 PM 30.9 °F 26.2 °F 25.0 °F 79% 30.09 in 10.0 mi East 4.6 mph - N/A   Clear
10:53 PM 28.0 °F - 24.1 °F 85% 30.08 in 10.0 mi Calm Calm - N/A   Clear
11:53 PM 26.1 °F 16.8 °F 23.0 °F 88% 30.06 in 8.0 mi North 9.2 mph - N/A   Clear